User: anonymous   Login
Location: Newark
(37.8333°N, 119.5000°W)
Time: 08:50:47
(UTC+00:00)
Language:

Transit 2A - Orbit

View from above orbital plane
View from above orbital plane
View from above satellite
View from above satellite

Ground track
Ground track

The orbit data is extracted from the following two-line orbital elements,

1    45U 60007A   19235.93780003 -.00000080 +00000-0 +70235-5 0  9993
2    45 066.6937 087.5313 0255114 174.6129 185.7816 14.33646513023044
Epoch (UTC): 23 August 2019 22:30:25
Eccentricity: 0.0255114
inclination: 66.6937°
perigee height: 597 km
apogee height: 962 km
right ascension of ascending node: 87.5313°
argument of perigee: 174.6129°
revolutions per day: 14.33646513
mean anomaly at epoch: 185.7816°
orbit number at epoch: 2304

The dashed part of the orbit path shows where the satellite is in the earth's shadow,  

DLR